• In Germany
  • List of Countries
  • For 7 days
  • Water Temperature
  • Satellite Maps
  • Weather Map
  • Weather Widgets
  • user-avatar
    Login

    Hourly Weather Arauca

    Today, 18 November, Saturday

    Time Temperature Precipitation Wind Pressure Humidity
    00:00 +25°C° 0.7 mm 1 mps 745 mmHg 95%
    01:00 +25°C° 0.7 mm 1 mps 745 mmHg 96%
    02:00 +25°C° 0.3 mm 1 mps 745 mmHg 96%
    03:00 +25°C° 0.3 mm 1 mps 745 mmHg 96%
    04:00 +25°C° 0.3 mm 1 mps 744 mmHg 97%
    05:00 +25°C° 0 mm 1 mps 745 mmHg 95%
    06:00 +26°C° 0 mm 1 mps 745 mmHg 93%
    07:00 +26°C° 0 mm 1 mps 746 mmHg 91%
    08:00 +28°C° 1.2 mm 1 mps 746 mmHg 87%
    09:00 +29°C° 1.2 mm 2 mps 746 mmHg 83%
    10:00 +31°C° 1.2 mm 2 mps 746 mmHg 80%
    11:00 +32°C° 0.8 mm 2 mps 746 mmHg 75%
    12:00 +32°C° 0.8 mm 2 mps 745 mmHg 70%
    13:00 +34°C° 0.8 mm 2 mps 744 mmHg 65%
    14:00 +32°C° 0.2 mm 2 mps 744 mmHg 67%
    15:00 +32°C° 0.2 mm 2 mps 743 mmHg 70%
    16:00 +32°C° 0.2 mm 1 mps 743 mmHg 73%
    17:00 +30°C° 0.3 mm 1 mps 743 mmHg 78%
    18:00 +29°C° 0.3 mm 1 mps 744 mmHg 83%
    19:00 +27°C° 0.3 mm 1 mps 744 mmHg 89%
    20:00 +27°C° 0.1 mm 1 mps 744 mmHg 90%
    21:00 +27°C° 0.1 mm 1 mps 745 mmHg 91%
    22:00 +26°C° 0.1 mm 1 mps 745 mmHg 92%
    23:00 +26°C° 0.4 mm 1 mps 745 mmHg 93%

    Tomorrow, 19 November, Sunday

    Time Temperature Precipitation Wind Pressure Humidity
    00:00 +26°C° 0.4 mm 1 mps 745 mmHg 94%
    01:00 +25°C° 0.4 mm 1 mps 745 mmHg 95%
    02:00 +25°C° 0.2 mm 1 mps 744 mmHg 96%
    03:00 +25°C° 0.2 mm 1 mps 744 mmHg 96%
    04:00 +25°C° 0.2 mm 1 mps 744 mmHg 96%
    05:00 +25°C° 0 mm 1 mps 745 mmHg 94%
    06:00 +26°C° 0 mm 1 mps 745 mmHg 92%
    07:00 +26°C° 0 mm 1 mps 746 mmHg 91%
    08:00 +28°C° 0.4 mm 1 mps 746 mmHg 82%
    09:00 +30°C° 0.4 mm 1 mps 746 mmHg 74%
    10:00 +32°C° 0.4 mm 1 mps 747 mmHg 66%
    11:00 +32°C° 0.5 mm 2 mps 746 mmHg 65%
    12:00 +34°C° 0.5 mm 2 mps 745 mmHg 65%
    13:00 +34°C° 0.5 mm 2 mps 744 mmHg 64%
    14:00 +32°C° 0 mm 2 mps 744 mmHg 68%
    15:00 +32°C° 0 mm 2 mps 743 mmHg 71%
    16:00 +31°C° 0 mm 1 mps 743 mmHg 75%
    17:00 +30°C° 0.2 mm 1 mps 744 mmHg 80%
    18:00 +29°C° 0.2 mm 1 mps 744 mmHg 85%
    19:00 +27°C° 0.2 mm 1 mps 745 mmHg 90%
    20:00 +27°C° 0.3 mm 1 mps 745 mmHg 91%
    21:00 +26°C° 0.3 mm 1 mps 746 mmHg 92%
    22:00 +26°C° 0.3 mm 1 mps 746 mmHg 94%
    23:00 +26°C° 0 mm 1 mps 746 mmHg 94%

    Day after tomorrow, 20 November, Monday

    Time Temperature Precipitation Wind Pressure Humidity
    00:00 +26°C° 0 mm 1 mps 745 mmHg 95%
    01:00 +25°C° 0 mm 1 mps 745 mmHg 96%
    02:00 +25°C° 0 mm 1 mps 745 mmHg 96%
    03:00 +25°C° 0 mm 1 mps 745 mmHg 96%
    04:00 +25°C° 0 mm 1 mps 745 mmHg 96%
    05:00 +25°C° 0 mm 1 mps 745 mmHg 93%
    06:00 +26°C° 0 mm 1 mps 746 mmHg 91%
    07:00 +26°C° 0 mm 1 mps 746 mmHg 88%
    08:00 +28°C° 0.1 mm 1 mps 747 mmHg 79%
    09:00 +30°C° 0.1 mm 2 mps 747 mmHg 71%
    10:00 +32°C° 0.1 mm 2 mps 747 mmHg 62%
    11:00 +34°C° 0.1 mm 2 mps 747 mmHg 60%
    12:00 +35°C° 0.1 mm 2 mps 746 mmHg 58%
    13:00 +35°C° 0.1 mm 2 mps 745 mmHg 56%
    14:00 +35°C° 0 mm 2 mps 744 mmHg 59%
    15:00 +34°C° 0 mm 2 mps 744 mmHg 63%
    16:00 +34°C° 0 mm 2 mps 743 mmHg 67%
    17:00 +31°C° 0 mm 1 mps 744 mmHg 73%
    18:00 +29°C° 0 mm 1 mps 745 mmHg 79%
    19:00 +27°C° 0 mm 1 mps 745 mmHg 86%
    20:00 +27°C° 0 mm 1 mps 745 mmHg 87%
    21:00 +27°C° 0 mm 1 mps 746 mmHg 89%
    22:00 +26°C° 0 mm 1 mps 746 mmHg 91%
    23:00 +26°C° 0.3 mm 1 mps 746 mmHg 92%

    21 November, Tuesday

    Time Temperature Precipitation Wind Pressure Humidity
    00:00 +26°C° 0.3 mm 1 mps 746 mmHg 93%
    01:00 +25°C° 0.3 mm 1 mps 745 mmHg 94%
    02:00 +25°C° 0.3 mm 1 mps 745 mmHg 93%
    03:00 +25°C° 0.3 mm 1 mps 745 mmHg 93%
    04:00 +25°C° 0.3 mm 1 mps 746 mmHg 93%
    05:00 +25°C° 0 mm 1 mps 746 mmHg 90%
    06:00 +25°C° 0 mm 1 mps 747 mmHg 87%
    07:00 +26°C° 0 mm 1 mps 747 mmHg 84%
    08:00 +28°C° 0 mm 2 mps 747 mmHg 75%
    09:00 +30°C° 0 mm 2 mps 747 mmHg 66%
    10:00 +32°C° 0 mm 2 mps 748 mmHg 56%
    11:00 +34°C° 0.1 mm 2 mps 747 mmHg 55%
    12:00 +35°C° 0.1 mm 2 mps 746 mmHg 54%
    13:00 +35°C° 0.1 mm 2 mps 745 mmHg 53%
    14:00 +35°C° 0 mm 2 mps 745 mmHg 57%
    15:00 +34°C° 0 mm 1 mps 744 mmHg 61%
    16:00 +33°C° 0 mm 1 mps 744 mmHg 64%
    17:00 +31°C° 0 mm 1 mps 745 mmHg 70%
    18:00 +30°C° 0 mm 1 mps 745 mmHg 77%
    19:00 +28°C° 0 mm 1 mps 746 mmHg 83%
    20:00 +27°C° 0.1 mm 1 mps 746 mmHg 85%
    21:00 +27°C° 0.1 mm 1 mps 746 mmHg 88%
    22:00 +26°C° 0.1 mm 1 mps 747 mmHg 91%
    23:00 +26°C° 0.3 mm 1 mps 746 mmHg 92%

    22 November, Wednesday

    Time Temperature Precipitation Wind Pressure Humidity
    00:00 +26°C° 0.3 mm 1 mps 746 mmHg 93%
    01:00 +26°C° 0.3 mm 1 mps 746 mmHg 94%
    02:00 +25°C° 0.2 mm 1 mps 746 mmHg 93%
    03:00 +25°C° 0.2 mm 1 mps 746 mmHg 92%
    04:00 +25°C° 0.2 mm 1 mps 746 mmHg 91%
    05:00 +25°C° 0 mm 1 mps 746 mmHg 88%
    06:00 +26°C° 0 mm 1 mps 747 mmHg 86%
    07:00 +26°C° 0 mm 1 mps 747 mmHg 83%
    08:00 +28°C° 0 mm 1 mps 747 mmHg 73%
    09:00 +30°C° 0 mm 1 mps 747 mmHg 63%
    10:00 +33°C° 0 mm 1 mps 748 mmHg 53%
    11:00 +34°C° 0 mm 2 mps 747 mmHg 53%
    12:00 +35°C° 0 mm 2 mps 746 mmHg 53%
    13:00 +35°C° 0 mm 2 mps 745 mmHg 53%
    14:00 +34°C° 0.1 mm 2 mps 745 mmHg 58%
    15:00 +34°C° 0.1 mm 2 mps 744 mmHg 63%
    16:00 +32°C° 0.1 mm 2 mps 744 mmHg 68%
    17:00 +30°C° 0 mm 1 mps 745 mmHg 75%
    18:00 +29°C° 0 mm 1 mps 745 mmHg 81%
    19:00 +27°C° 0 mm 1 mps 746 mmHg 87%
    20:00 +27°C° 0.3 mm 1 mps 746 mmHg 89%
    21:00 +27°C° 0.3 mm 1 mps 746 mmHg 91%
    22:00 +26°C° 0.3 mm 1 mps 746 mmHg 93%
    23:00 +26°C° 0.5 mm 1 mps 746 mmHg 94%

    23 November, Thursday

    Time Temperature Precipitation Wind Pressure Humidity
    00:00 +26°C° 0.5 mm 1 mps 746 mmHg 95%
    01:00 +25°C° 0.5 mm 1 mps 745 mmHg 96%
    02:00 +25°C° 0.1 mm 1 mps 745 mmHg 96%
    03:00 +25°C° 0.1 mm 1 mps 745 mmHg 97%
    04:00 +25°C° 0.1 mm 1 mps 745 mmHg 97%
    05:00 +25°C° 0 mm 1 mps 746 mmHg 95%
    06:00 +25°C° 0 mm 1 mps 746 mmHg 93%
    07:00 +26°C° 0 mm 1 mps 747 mmHg 91%
    08:00 +28°C° 0 mm 1 mps 747 mmHg 82%
    09:00 +30°C° 0 mm 2 mps 747 mmHg 72%
    10:00 +31°C° 0 mm 2 mps 747 mmHg 62%
    11:00 +32°C° 0.1 mm 2 mps 746 mmHg 61%
    12:00 +34°C° 0.1 mm 2 mps 745 mmHg 60%
    13:00 +34°C° 0.1 mm 2 mps 744 mmHg 59%
    14:00 +34°C° 0 mm 2 mps 744 mmHg 62%
    15:00 +32°C° 0 mm 2 mps 744 mmHg 65%
    16:00 +32°C° 0 mm 1 mps 743 mmHg 69%
    17:00 +30°C° 0 mm 1 mps 744 mmHg 74%
    18:00 +29°C° 0 mm 1 mps 745 mmHg 79%
    19:00 +28°C° 0 mm 1 mps 745 mmHg 85%
    20:00 +27°C° 1 mm 1 mps 745 mmHg 88%
    21:00 +27°C° 1 mm 1 mps 746 mmHg 91%
    22:00 +26°C° 1 mm 1 mps 746 mmHg 94%
    23:00 +26°C° 0.7 mm 1 mps 746 mmHg 95%
    Show more